Weather History for Broken Bow, NE

Change the Weather History Date:

Wednesday, January 16, 2013

  Actual Average Record
Temperature  
Mean Temperature 39 °F 26 °F  
Max Temperature 51 °F 38 °F 72 °F (1951)
Min Temperature 26 °F 14 °F -19 °F (1977)
Degree Days  
Heating Degree Days 26 39  
Month to date heating degree days 660 631  
Cooling Degree Days 0 0  
Month to date cooling degree days 0 0  
Year to date cooling degree days 0 0  
Moisture  
Dew Point 25 °F    
Average Humidity 61    
Maximum Humidity 85    
Minimum Humidity 36    
Precipitation  
Precipitation T in 0.01 in 0.75 in (1936)
Sea Level Pressure  
Sea Level Pressure 30.11 in    
Wind  
Wind Speed 14 mph (WNW)    
Max Wind Speed 32 mph    
Max Gust Speed 38 mph    
Visibility 10 miles    
Events      
T = Trace of Precipitation, MM = Missing Value Source: NWS Daily Summary

Daily Weather History Graph

Daily Weather History Graph

Search for Another Location

Airport:

Trip Planner

Search our weather history database for the weather conditions in past years. The results will help you decide how hot, cold, wet, or windy it might be!

Date:

Astronomy

Jan. 16, 2013 Rise Set
Actual Time 8:01 AM CST 5:35 PM CST
Civil Twilight 7:31 AM CST 6:05 PM CST
Nautical Twilight 6:57 AM CST 6:39 PM CST
Astronomical Twilight 6:24 AM CST 7:13 PM CST
Moon 10:34 AM CST (1/16) 11:33 PM CST (1/16)
Length of Visible Light 10h 34m
Length of Day
9h 33m
Waxing Crescent, 28% of the Moon is Illuminated
Jan 16
Waxing Crescent
Jan 18
First Quarter
Jan 26
Full
Feb 3
Last Quarter
Feb 10
New

Hourly Weather History & Observations

Time (CST) Temp. Windchill Dew Point Humidity Pressure Visibility Wind Dir Wind Speed Gust Speed Precip Events Conditions
12:53 AM 26.1 °F 16.2 °F 19.0 °F 75% 30.03 in 10.0 mi West 10.4 mph - N/A   Overcast
1:53 AM 27.0 °F 18.7 °F 21.0 °F 78% 30.01 in 10.0 mi West 8.1 mph - N/A   Overcast
2:53 AM 30.9 °F 23.5 °F 26.1 °F 82% 30.01 in 10.0 mi West 8.1 mph - N/A   Overcast
3:53 AM 33.1 °F 23.0 °F 28.0 °F 82% 29.99 in 10.0 mi West 15.0 mph - 0.00 in   Overcast
4:53 AM 34.0 °F 25.0 °F 28.9 °F 82% 29.99 in 10.0 mi West 12.7 mph - N/A   Mostly Cloudy
5:53 AM 32.0 °F 22.1 °F 27.0 °F 82% 30.00 in 10.0 mi West 13.8 mph 21.9 mph N/A   Clear
6:53 AM 35.1 °F 24.1 °F 27.0 °F 72% 30.04 in 10.0 mi WNW 19.6 mph 29.9 mph N/A   Mostly Cloudy
7:53 AM 35.1 °F 24.5 °F 26.1 °F 70% 30.06 in 10.0 mi WNW 18.4 mph - N/A   Partly Cloudy
8:53 AM 36.0 °F 25.6 °F 25.0 °F 64% 30.09 in 10.0 mi WNW 18.4 mph - N/A   Clear
9:53 AM 39.0 °F 30.3 °F 25.0 °F 57% 30.09 in 10.0 mi WNW 16.1 mph - N/A   Scattered Clouds
10:53 AM 43.0 °F 34.5 °F 25.0 °F 49% 30.08 in 10.0 mi NW 19.6 mph 26.5 mph N/A   Clear
11:53 AM 46.9 °F - 26.1 °F 44% 30.06 in 10.0 mi WNW 17.3 mph - N/A   Clear
12:53 PM 50.0 °F - 26.1 °F 39% 30.05 in 10.0 mi NW 17.3 mph 24.2 mph N/A   Clear
1:53 PM 50.0 °F - 24.8 °F 37% 30.01 in 10.0 mi NW 25.3 mph 33.4 mph N/A   Clear
2:53 PM 48.9 °F - 23.0 °F 36% 30.07 in 10.0 mi NNW 25.3 mph 38.0 mph N/A   Clear
3:53 PM 48.0 °F - 24.1 °F 39% 30.10 in 10.0 mi NNW 16.1 mph 31.1 mph N/A   Clear
4:53 PM 44.1 °F 37.1 °F 24.1 °F 45% 30.13 in 10.0 mi NNW 15.0 mph - N/A   Clear
5:53 PM 39.9 °F 33.9 °F 25.0 °F 55% 30.18 in 10.0 mi NW 9.2 mph - N/A   Clear
6:53 PM 37.9 °F 30.9 °F 25.0 °F 60% 30.21 in 10.0 mi NW 10.4 mph - N/A   Clear
7:53 PM 36.0 °F 28.0 °F 26.1 °F 67% 30.23 in 10.0 mi NW 11.5 mph - N/A   Clear
8:53 PM 34.0 °F 25.5 °F 25.0 °F 70% 30.26 in 10.0 mi NW 11.5 mph - N/A   Clear
9:53 PM 32.0 °F 23.0 °F 25.0 °F 75% 30.27 in 10.0 mi NW 11.5 mph - N/A   Clear
10:53 PM 30.9 °F 22.2 °F 24.1 °F 76% 30.30 in 10.0 mi NW 10.4 mph - N/A   Clear
11:53 PM 28.0 °F 24.2 °F 23.0 °F 81% 30.31 in 10.0 mi SW 3.5 mph - N/A   Clear